Plattsmouth, NE

9:42 AM CST on February 23, 2017 (GMT -0600)
Plattsmouth Municipal

Weather History for KPMV - January, 2013

Change the Weather History Date:

Saturday, January 19, 2013

  Actual Average (KOFF) Record (KOFF)
Temperature  
Mean Temperature 39 °F -  
Max Temperature 53 °F 31 °F 66 °F (2014)
Min Temperature 24 °F 14 °F -10 °F (2008)
Degree Days  
Heating Degree Days 26    
Moisture  
Dew Point 27 °F    
Average Humidity 58    
Maximum Humidity 77    
Minimum Humidity 37    
Precipitation  
Precipitation 0.00 in - - ()
Sea Level Pressure  
Sea Level Pressure 30.03 in    
Wind  
Wind Speed 11 mph (WNW)    
Max Wind Speed 21 mph    
Max Gust Speed 29 mph    
Visibility 10 miles    
Events      
Averages and records for this station are not official NWS values.
T = Trace of Precipitation, MM = Missing Value Source: NWS Daily Summary

Daily Weather History Graph

Daily Weather History Graph

Search for Another Location

Airport or City:

Trip Planner

Search our weather history database for the weather conditions in past years. The results will help you decide how hot, cold, wet, or windy it might be!

Date:

Astronomy

Jan. 19, 2013 Rise Set
Actual Time 7:44 AM CST 5:25 PM CST
Civil Twilight 7:14 AM CST 5:55 PM CST
Nautical Twilight 6:40 AM CST 6:28 PM CST
Astronomical Twilight 6:07 AM CST 7:01 PM CST
Moon 11:52 AM CST (1/19) 1:18 AM CST (1/19)
Length of Visible Light 10h 41m
Length of Day
9h 41m
First Quarter, 57% of the Moon is Illuminated
Jan 19
First Quarter
Jan 26
Full
Feb 3
Last Quarter
Feb 10
New
Feb 17
First Quarter

Hourly Weather History & Observations

Time (CST) Temp. Windchill Dew Point Humidity Pressure Visibility Wind Dir Wind Speed Gust Speed Precip Events Conditions
12:15 AM 39.2 °F 32.0 °F 29.3 °F 68% 29.89 in 10.0 mi SSW 11.5 mph - N/A   Clear
12:35 AM 38.5 °F 32.1 °F 29.1 °F 69% 29.89 in 10.0 mi SSW 9.2 mph - N/A   Clear
12:55 AM 38.1 °F 32.9 °F 28.8 °F 69% 29.89 in 10.0 mi SSW 6.9 mph - N/A   Clear
1:15 AM 37.8 °F - 28.4 °F 69% 29.89 in 10.0 mi Calm Calm - N/A   Clear
1:35 AM 37.0 °F 32.4 °F 28.0 °F 70% 29.89 in 10.0 mi South 5.8 mph - N/A   Clear
1:55 AM 37.0 °F 32.4 °F 27.9 °F 69% 29.89 in 10.0 mi South 5.8 mph - N/A   Clear
2:15 AM 37.4 °F 31.4 °F 28.2 °F 69% 29.89 in 10.0 mi SSW 8.1 mph - N/A   Clear
2:35 AM 37.4 °F 31.4 °F 28.0 °F 69% 29.88 in 10.0 mi SSW 8.1 mph - N/A   Clear
2:55 AM 36.9 °F 30.7 °F 27.9 °F 70% 29.88 in 10.0 mi South 8.1 mph - N/A   Clear
3:15 AM 36.3 °F 29.5 °F 27.9 °F 71% 29.88 in 10.0 mi South 9.2 mph - N/A   Clear
3:35 AM 35.2 °F 29.5 °F 27.5 °F 73% 29.88 in 10.0 mi SSW 6.9 mph - N/A   Clear
3:55 AM 35.8 °F 28.8 °F 27.9 °F 73% 29.87 in 10.0 mi SSW 9.2 mph - N/A   Clear
4:15 AM 35.4 °F 29.0 °F 27.5 °F 73% 29.87 in 10.0 mi SW 8.1 mph - N/A   Clear
4:35 AM 34.9 °F 29.9 °F 27.1 °F 73% 29.86 in 10.0 mi SSW 5.8 mph - N/A   Clear
4:55 AM 33.8 °F 27.0 °F 27.1 °F 77% 29.86 in 10.0 mi SSW 8.1 mph - N/A   Clear
5:15 AM 33.8 °F 27.0 °F 27.0 °F 76% 29.87 in 10.0 mi SSW 8.1 mph - N/A   Clear
5:35 AM 34.0 °F 27.2 °F 27.1 °F 76% 29.87 in 10.0 mi SW 8.1 mph - N/A   Clear
5:55 AM 34.5 °F 26.7 °F 27.0 °F 74% 29.87 in 10.0 mi SSW 10.4 mph - N/A   Clear
7:15 AM 34.0 °F 26.0 °F 27.0 °F 75% 29.88 in 10.0 mi SW 10.4 mph - N/A   Clear
7:55 AM 34.9 °F 29.0 °F 26.6 °F 72% 29.91 in 10.0 mi West 6.9 mph - N/A   Clear
8:15 AM 34.5 °F 29.4 °F 27.3 °F 75% 29.91 in 10.0 mi West 5.8 mph - N/A   Clear
8:35 AM 35.4 °F 31.5 °F 27.9 °F 74% 29.92 in 10.0 mi West 4.6 mph - N/A   Clear
9:35 AM 41.7 °F 35.6 °F 28.4 °F 59% 29.96 in 10.0 mi WNW 10.4 mph - N/A   Clear
9:55 AM 45.5 °F 39.2 °F 27.7 °F 50% 29.97 in 10.0 mi WNW 13.8 mph 21.9 mph N/A   Clear
10:15 AM 47.7 °F - 27.7 °F 46% 29.97 in 10.0 mi WNW 16.1 mph 21.9 mph N/A   Clear
10:35 AM 48.4 °F - 27.7 °F 45% 29.98 in 10.0 mi WNW 15.0 mph 21.9 mph N/A   Clear
10:55 AM 49.5 °F - 27.9 °F 43% 29.98 in 10.0 mi WNW 11.5 mph - N/A   Clear
11:15 AM 51.3 °F - 27.5 °F 40% 29.98 in 10.0 mi WNW 15.0 mph 20.7 mph N/A   Clear
11:35 AM 52.0 °F - 27.3 °F 39% 29.97 in 10.0 mi WNW 18.4 mph 24.2 mph N/A   Clear
11:55 AM 52.5 °F - 27.0 °F 37% 29.97 in 10.0 mi WNW 19.6 mph 23.0 mph N/A   Clear
12:15 PM 52.3 °F - 27.3 °F 38% 29.97 in 10.0 mi NW 18.4 mph 25.3 mph N/A   Clear
12:35 PM 52.0 °F - 28.0 °F 40% 29.97 in 10.0 mi WNW 19.6 mph 28.8 mph N/A   Clear
12:55 PM 53.1 °F - 28.2 °F 38% 29.97 in 10.0 mi WNW 19.6 mph 28.8 mph N/A   Clear
1:35 PM 53.6 °F - 28.9 °F 39% 29.97 in 10.0 mi NW 20.7 mph 28.8 mph N/A   Clear
1:55 PM 53.1 °F - 28.6 °F 39% 29.99 in 10.0 mi NW 17.3 mph 23.0 mph N/A   Clear
2:15 PM 53.8 °F - 28.9 °F 39% 29.99 in 10.0 mi NW 19.6 mph 23.0 mph N/A   Clear
2:35 PM 53.6 °F - 28.6 °F 38% 30.00 in 10.0 mi NW 17.3 mph 21.9 mph N/A   Clear
2:55 PM 53.6 °F - 29.1 °F 39% 30.01 in 10.0 mi NW 15.0 mph - N/A   Clear
3:15 PM 53.8 °F - 29.5 °F 39% 30.02 in 10.0 mi NW 11.5 mph 16.1 mph N/A   Clear
3:35 PM 53.4 °F - 29.7 °F 40% 30.03 in 10.0 mi NW 11.5 mph 19.6 mph N/A   Clear
3:55 PM 52.7 °F - 29.1 °F 40% 30.05 in 10.0 mi NW 18.4 mph 24.2 mph N/A   Clear
4:15 PM 52.0 °F - 30.0 °F 43% 30.06 in 10.0 mi NW 17.3 mph 25.3 mph N/A   Clear
4:35 PM 50.9 °F - 30.2 °F 45% 30.07 in 10.0 mi NW 16.1 mph 23.0 mph N/A   Clear
4:55 PM 49.3 °F - 30.7 °F 49% 30.09 in 10.0 mi NNW 9.2 mph - N/A   Clear
5:15 PM 47.5 °F - 30.7 °F 52% 30.10 in 10.0 mi NNW 8.1 mph - N/A   Clear
5:35 PM 45.9 °F 41.7 °F 29.8 °F 54% 30.11 in 10.0 mi NNW 8.1 mph - N/A   Clear
5:55 PM 43.7 °F 39.1 °F 29.8 °F 58% 30.11 in 10.0 mi NNW 8.1 mph - N/A   Clear
6:15 PM 43.2 °F 37.4 °F 30.2 °F 60% 30.13 in 10.0 mi NNW 10.4 mph - N/A   Clear
6:35 PM 43.7 °F 35.7 °F 29.7 °F 58% 30.14 in 10.0 mi NNW 18.4 mph 23.0 mph N/A   Clear
6:55 PM 43.3 °F 36.1 °F 27.5 °F 54% 30.15 in 10.0 mi NNW 15.0 mph 28.8 mph N/A   Clear
7:15 PM 42.4 °F 34.7 °F 27.3 °F 55% 30.16 in 10.0 mi NNW 16.1 mph 21.9 mph N/A   Clear
7:35 PM 42.4 °F 34.7 °F 27.1 °F 55% 30.16 in 10.0 mi NNW 16.1 mph 26.5 mph N/A   Clear
7:55 PM 41.4 °F 33.3 °F 27.5 °F 58% 30.16 in 10.0 mi NNW 16.1 mph 25.3 mph N/A   Clear
8:15 PM 40.3 °F 32.6 °F 28.2 °F 62% 30.18 in 10.0 mi NNW 13.8 mph 19.6 mph N/A   Clear
8:35 PM 38.1 °F 27.9 °F 29.1 °F 70% 30.22 in 10.0 mi NNW 20.7 mph 28.8 mph N/A   Clear
8:55 PM 36.0 °F 26.0 °F 25.7 °F 66% 30.23 in 10.0 mi NNW 17.3 mph 27.6 mph N/A   Clear
9:15 PM 34.3 °F 25.0 °F 21.4 °F 59% 30.24 in 10.0 mi NNW 13.8 mph 24.2 mph N/A   Clear
9:35 PM 32.5 °F 23.2 °F 19.2 °F 58% 30.25 in 10.0 mi NW 12.7 mph - N/A   Clear
9:55 PM 31.5 °F 22.9 °F 19.8 °F 62% 30.26 in 10.0 mi NW 10.4 mph - N/A   Clear
10:15 PM 29.3 °F 21.5 °F 18.5 °F 64% 30.28 in 10.0 mi North 8.1 mph - N/A   Clear
10:35 PM 28.8 °F 20.9 °F 18.0 °F 64% 30.29 in 10.0 mi North 8.1 mph 17.3 mph N/A   Clear
10:55 PM 28.0 °F 18.1 °F 15.8 °F 60% 30.31 in 10.0 mi North 11.5 mph - N/A   Clear
11:15 PM 26.4 °F 16.6 °F 14.9 °F 62% 30.32 in 10.0 mi North 10.4 mph 16.1 mph N/A   Clear
11:35 PM 25.2 °F 15.1 °F 14.9 °F 65% 30.33 in 10.0 mi NNW 10.4 mph - N/A   Clear
11:55 PM 24.6 °F 13.2 °F 13.1 °F 62% 30.33 in 10.0 mi NNW 12.7 mph - N/A   Clear